Content
SEND FEEDBACK

Daily
Averages
Monthly
Summary
United Kingdom

LONDON, ENGLAND


Home > Europe > United Kingdom > England
Elevation: 203 feet     Latitude: 51 09N     Longitude: 000 11W

WEATHER
 
SELECT A DAY
Number of Records: 299,669;   Date Range: 7/1/96 - 12/23/14
 
SHARE

PRINT THIS DATA

[ ← Previous Day ]
WEATHER ALMANAC - SEPTEMBER 14, 2013
[ Next Day → ]
[ °C ]   °F
Weather ElementAverageHighLow
Temperature53.3 °F60.8 °F (12:50 am)48.2 °F (4:50 am)
Dewpoint49.7 °F60.8 °F (12:50 am)46.4 °F (5:50 am)
Humidity88.2 %100 % (12:50 am)77 % (8:50 pm)
Barometer29.99 in30.06 in (8:20 pm)29.86 in (12:50 am)
Wind Speed9.2 mph17.3 mph (1:20 am)
Weather ElementAverage
Visibility5.7 mi
Wind DirectionWNW (299.6 °)

Weather ElementTotal
Precipitation---
Heating Degree Days10.5 (Base 65)
Growing Degree Days4.5 (Base 50)
Averaged from 47 records on September 14, 2013
WEATHER CONDITIONS BREAKOUT
WIND DIRECTION BREAKOUT
WEATHER BY HOUR - SEPTEMBER 14, 2013
[ °C ]   °F
Local TimeTemperatureDewpointHumidityBarometerVisibilityWind DirectionWind SpeedGust SpeedPrecipitationEventsConditions
12:50 AM60.8 °F60.8 °F100 %29.86 in6.2 miSW (220°)10.4 mphRainLight Rain
1:20 AM59.0 °F57.2 °F94 %29.86 in3.7 miWNW (300°)17.3 mphRainLight Rain
1:50 AM53.6 °F51.8 °F94 %29.89 in6.2 miNNW (330°)17.3 mphRainLight Rain
2:20 AM53.6 °F51.8 °F94 %29.89 in6.2 miNW (320°)12.7 mphRainLight Rain
2:50 AM51.8 °F50.0 °F94 %29.92 in6.2 miNNW (330°)13.8 mphMostly Cloudy
3:20 AM51.8 °F50.0 °F94 %29.92 in5.0 miNNW (340°)12.7 mphLight Drizzle
3:50 AM50.0 °F48.2 °F94 %29.92 in3.1 miNNW (330°)11.5 mphLight Drizzle
4:20 AM50.0 °F48.2 °F94 %29.92 in5.6 miNW (310°)11.5 mphMostly Cloudy
4:50 AM48.2 °F48.2 °F100 %29.92 in2.8 miNW (320°)9.2 mphLight Drizzle
5:20 AM48.2 °F48.2 °F100 %29.92 in3.7 miNW (320°)10.4 mphLight Drizzle
5:50 AM48.2 °F46.4 °F93 %29.95 in5.0 miNW (320°)10.4 mphMostly Cloudy
6:20 AM50.0 °F46.4 °F87 %29.95 in6.2 miNW (310°)8.1 mphMostly Cloudy
6:50 AM50.0 °F46.4 °F87 %29.95 in5.6 miWNW (300°)8.1 mphMostly Cloudy
7:20 AM50.0 °F46.4 °F87 %29.95 in6.2 miWNW (300°)6.9 mphMostly Cloudy
7:50 AM50.0 °F48.2 °F94 %29.95 in6.2 miWNW (300°)8.1 mphMostly Cloudy
8:20 AM50.0 °F48.2 °F94 %29.95 in6.2 miNW (310°)11.5 mphMostly Cloudy
8:50 AM51.8 °F48.2 °F88 %29.98 in6.2 miWNW (290°)11.5 mphMostly Cloudy
9:20 AM51.8 °F48.2 °F88 %29.98 in6.2 miWNW (290°)9.2 mphMostly Cloudy
9:50 AM51.8 °F48.2 °F88 %29.98 in6.2 miNW (310°)11.5 mphMostly Cloudy
10:20 AM51.8 °F48.2 °F88 %29.98 in5.0 miNW (320°)10.4 mphMostly Cloudy
10:50 AM51.8 °F50.0 °F94 %29.98 in6.2 miNW (310°)6.9 mphMostly Cloudy
11:20 AM53.6 °F50.0 °F88 %29.98 in6.2 miNW (320°)9.2 mphMostly Cloudy
11:50 AM53.6 °F50.0 °F88 %29.98 in6.2 miNNW (330°)10.4 mphMostly Cloudy
12:20 PM53.6 °F51.8 °F94 %29.98 in4.3 miNNW (330°)8.1 mphLight Drizzle
12:50 PM55.4 °F51.8 °F88 %30.01 in6.2 miNorth (350°)9.2 mphLight Drizzle
1:20 PM55.4 °F51.8 °F88 %30.01 in6.2 miNorth (350°)10.4 mphMostly Cloudy
1:50 PM55.4 °F51.8 °F88 %30.01 in6.2 miNorth (360°)11.5 mphMostly Cloudy
2:20 PM55.4 °F50.0 °F82 %30.01 in6.2 miNorth (10°)11.5 mphMostly Cloudy
2:50 PM55.4 °F51.8 °F88 %30.01 in6.2 miNorth (350°)10.4 mphMostly Cloudy
3:20 PM57.2 °F51.8 °F82 %30.01 in6.2 miNorth (360°)8.1 mphMostly Cloudy
3:50 PM55.4 °F51.8 °F88 %30.01 in6.2 miNNW (340°)10.4 mphRainLight Rain
4:20 PM55.4 °F51.8 °F88 %30.01 in6.2 miNorth (350°)9.2 mphRainLight Rain
4:50 PM55.4 °F50.0 °F82 %30.01 in6.2 miNorth (360°)9.2 mphMostly Cloudy
5:20 PM55.4 °F50.0 °F82 %30.04 in6.2 miNorth (350°)8.1 mphMostly Cloudy
5:50 PM55.4 °F50.0 °F82 %30.04 in6.2 miNorth (350°)8.1 mphMostly Cloudy
6:20 PM55.4 °F50.0 °F82 %30.04 in6.2 miNNW (340°)9.2 mphMostly Cloudy
6:50 PM55.4 °F50.0 °F82 %30.04 in6.2 miNorth (350°)6.9 mphPartly Cloudy
7:20 PM55.4 °F50.0 °F82 %30.04 inNorth (350°)5.8 mphClear
7:50 PM55.4 °F50.0 °F82 %30.04 inNorth (360°)6.9 mphClear
8:20 PM55.4 °F50.0 °F82 %30.06 inNorth (360°)5.8 mphClear
8:50 PM55.4 °F48.2 °F77 %30.06 inNorth (10°)5.8 mphClear
9:20 PM53.6 °F48.2 °F82 %30.06 inNorth (10°)5.8 mphClear
9:50 PM53.6 °F48.2 °F82 %30.06 inNNW (330°)4.6 mphClear
10:20 PM53.6 °F48.2 °F82 %30.06 inNNW (340°)4.6 mphClear
10:50 PM51.8 °F48.2 °F88 %30.06 inVariable3.5 mphClear
11:20 PM51.8 °F46.4 °F82 %30.06 inNW (310°)4.6 mphClear
11:50 PM50.0 °F46.4 °F87 %30.06 inNNW (330°)4.6 mphClear
Hourly data recorded from EGKK, located miles away from London, England







STORIES FROM OUR PARTNERS